Location: Newark
(34.9756°N, 138.3828°E)
Time: 04:41:13
(UTC+00:00)

Hubble Space Telescope - Visible Passes

Search period start: 16 December 2019 00:00
Search period end: 26 December 2019 00:00
Orbit: 536 x 540 km, 28.5° (Epoch: 14 December)

Date Brightness Start Highest point End Pass type
(mag) Time Alt. Az. Time Alt. Az. Time Alt. Az.
16 Dec 3.2 19:12:40 18° SE 19:12:40 18° SE 19:14:33 10° ESE visible
16 Dec 2.2 20:48:31 10° WSW 20:52:14 32° S 20:55:57 10° ESE visible
17 Dec 3.5 19:02:52 16° SE 19:02:52 16° SE 19:04:06 10° ESE visible
17 Dec 2.1 20:38:14 12° WSW 20:41:35 33° S 20:45:19 10° ESE visible
18 Dec 3.8 18:53:01 13° ESE 18:53:01 13° ESE 18:53:35 10° ESE visible
18 Dec 2.1 20:28:22 17° WSW 20:30:55 33° S 20:34:39 10° ESE visible
19 Dec 2.1 20:18:27 22° SW 20:20:16 32° S 20:23:58 10° ESE visible
20 Dec 2.0 20:08:31 26° SW 20:09:36 31° S 20:13:16 10° SE visible
21 Dec 2.1 19:58:33 28° SSW 19:58:56 29° S 20:02:31 10° SE visible
22 Dec 2.3 19:48:35 26° S 19:48:35 26° S 19:51:44 10° SE visible
23 Dec 2.7 19:38:37 21° S 19:38:37 21° S 19:40:54 10° SE visible
24 Dec 3.2 19:28:40 16° SSE 19:28:40 16° SSE 19:30:00 10° SSE visible
25 Dec 3.6 19:18:44 11° SSE 19:18:44 11° SSE 19:19:00 10° SSE visible
